Wind_Speed
117 117 116 115 115 115 115 115 115 114 114 113 113 113 112 112 111 110 108 107 106 105 104 103 103 103 103 103 103 103 103 103 102 102 101 100 100 100 100 99 97 95 93 92 92 92 91 91 90 88 87 87
121 121 120 119 118 118 118 117 117 117 117 116 116 116 115 115 114 113 112 111 110 109 107 107 106 106 106 106 106 106 106 105 105 104 103 103 102 102 101 101 100 99 97 96 95 95 95 94 93 91 90 89
126 125 125 124 123 122 121 121 121 120 120 119 119 119 118 118 117 116 115 115 114 113 111 110 109 109 109 109 108 108 108 108 107 107 106 105 105 104 104 103 103 102 101 100 98 98 98 97 96 94 92 91
128 129 129 128 127 127 126 125 124 124 124 123 123 122 122 121 121 120 119 118 117 116 115 114 113 113 112 112 111 111 110 109 109 109 108 107 107 107 107 106 105 104 103 103 102 102 102 101 100 98 96 94
130 131 131 131 131 131 130 129 128 128 127 127 127 126 125 125 125 124 123 122 121 120 119 118 118 117 116 115 115 114 114 113 112 111 110 109 109 109 109 109 108 107 106 105 105 105 105 104 103 101 99 98
130 131 132 133 133 133 133 133 133 132 131 131 130 130 129 129 128 128 127 126 124 123 122 121 122 122 121 119 118 118 117 116 115 114 113 112 111 110 111 111 110 110 109 108 108 107 107 107 107 105 103 101
130 131 132 132 133 134 134 135 135 135 135 134 134 134 133 133 132 132 131 130 128 127 126 124 124 125 125 124 123 122 121 120 119 118 117 115 114 112 112 112 112 112 111 111 110 109 108 109 109 109 107 105
129 130 131 132 133 133 134 135 135 136 136 137 137 137 137 136 136 135 135 133 132 131 129 128 127 128 128 128 127 126 125 124 123 122 120 119 117 115 114 113 113 113 113 113 112 112 111 111 112 111 110 108
126 128 130 131 132 133 133 134 134 135 136 136 137 138 139 139 139 139 138 137 136 135 134 132 130 130 130 130 130 130 129 128 127 125 124 123 121 119 117 116 115 115 115 114 113 113 113 113 114 114 113 112
123 125 127 129 130 132 133 134 134 135 135 135 136 137 138 139 140 141 141 140 139 138 137 136 134 133 132 132 132 133 132 131 130 129 128 126 125 123 121 119 118 117 117 116 114 114 114 115 116 116 116 115
122 124 125 126 128 130 131 132 134 135 135 135 136 136 136 137 138 139 140 141 141 141 140 139 138 137 135 134 134 134 134 134 133 132 131 130 128 127 125 123 121 120 119 118 117 115 115 116 117 118 118 118
121 123 124 126 127 128 129 131 132 133 134 135 136 136 137 137 137 138 138 139 139 140 140 140 140 139 138 137 136 136 136 136 135 135 134 133 132 130 128 126 125 123 122 121 119 118 117 117 117 119 119 120
121 122 124 125 126 127 129 130 131 132 133 134 135 135 136 137 137 138 138 137 137 137 137 138 138 138 138 138 137 137 137 136 136 136 136 135 135 133 132 130 128 126 125 124 122 120 120 119 119 120 120 121
123 124 124 125 126 127 128 129 130 131 132 132 133 134 135 136 137 137 137 137 137 137 136 136 135 135 136 136 137 136 136 137 137 136 136 136 136 136 134 133 131 129 127 126 125 124 122 121 121 121 121 122
126 126 126 127 127 128 128 129 130 131 131 132 132 133 134 135 135 136 136 136 137 137 136 136 135 134 134 134 134 134 134 135 135 135 135 136 137 137 136 135 133 132 130 128 127 126 125 124 123 122 123 123
127 128 128 128 128 129 129 130 130 131 132 132 132 133 133 133 134 134 134 135 135 135 135 135 135 135 135 134 133 132 132 132 133 133 133 134 136 137 136 136 135 134 132 130 129 128 127 126 125 124 125 125
128 128 128 129 129 129 129 130 130 131 132 132 133 133 133 133 133 133 133 133 133 134 134 134 134 135 135 135 134 133 132 131 131 131 131 132 134 135 136 136 135 135 133 132 131 130 129 128 127 126 126 127
127 128 128 128 129 129 129 130 130 131 131 132 133 133 134 134 134 133 133 132 132 133 133 133 133 134 134 135 135 135 134 133 132 131 130 131 132 133 134 135 135 135 134 133 132 132 131 129 128 128 128 128
125 126 127 127 127 128 128 129 130 130 130 131 132 133 134 134 134 134 134 134 133 133 133 133 133 133 133 134 134 135 135 135 134 133 132 131 131 131 132 133 134 135 135 135 134 133 132 131 130 129 128 129
122 123 124 125 126 127 127 128 129 129 129 130 130 131 133 133 134 135 135 135 135 134 134 133 133 133 133 134 134 134 134 135 135 135 135 134 133 133 132 132 132 133 134 135 135 134 134 133 132 130 130 130
119 121 122 124 125 126 127 127 128 128 129 129 129 130 131 131 133 134 135 135 136 136 135 135 134 133 133 133 134 134 134 134 135 136 136 136 136 135 135 134 133 132 132 133 134 135 135 135 134 133 132 131
115 117 119 121 122 124 125 126 126 127 128 128 129 129 129 130 130 131 133 134 135 136 136 136 136 135 134 134 133 133 134 134 135 135 136 137 137 138 137 136 135 134 132 132 132 133 134 135 135 135 134 134
110 112 114 116 118 120 121 122 123 124 125 126 127 128 128 129 129 129 130 131 133 134 135 136 136 136 136 135 134 133 133 133 134 134 135 135 136 138 139 139 138 137 135 134 133 132 133 134 135 135 136 136
104 106 108 110 112 114 116 117 119 120 121 123 124 126 127 128 128 128 129 129 130 131 133 134 135 136 137 136 136 135 134 133 133 133 134 135 135 136 138 139 140 140 139 137 135 134 133 133 133 134 135 136
99 101 103 105 107 109 110 112 114 116 117 118 119 121 124 126 127 127 128 128 128 129 130 132 133 134 135 136 136 136 135 134 133 133 133 133 134 135 136 137 138 140 141 140 139 137 136 134 134 133 133 134
94 96 98 100 102 103 105 107 109 111 113 114 115 116 118 121 124 125 126 126 127 127 128 129 131 132 133 134 135 136 135 135 135 134 133 133 133 134 135 136 137 138 140 141 141 140 139 137 136 135 134 133
90 92 94 96 97 99 101 103 105 107 109 110 112 113 114 116 118 121 122 124 125 125 126 127 128 129 130 131 132 133 134 135 135 135 134 134 133 133 134 135 136 136 137 139 140 141 141 140 140 138 137 135
88 90 92 94 95 97 99 100 102 103 104 106 108 110 111 112 113 115 117 119 121 123 124 126 127 127 127 128 129 131 132 133 134 134 135 135 134 134 134 134 135 136 137 137 138 139 140 141 142 141 140 138
84 86 89 91 92 94 96 97 98 100 101 103 105 107 108 109 110 111 113 115 117 119 121 123 125 126 125 125 126 127 129 130 131 132 133 134 134 134 134 134 134 135 136 136 137 138 138 140 141 141 141 141
80 82 85 87 88 90 91 92 93 95 96 98 101 103 104 104 105 107 108 111 113 115 117 119 122 123 123 123 123 124 125 127 128 130 131 132 133 134 134 134 135 135 135 136 137 138 138 138 139 139 140 141
77 78 80 82 84 86 88 89 90 91 92 94 96 97 98 98 99 101 102 104 107 110 112 115 117 119 120 119 120 120 122 123 125 126 128 129 131 132 133 134 134 134 135 136 136 137 137 138 138 138 139 140
Wind_Direction
255 254 254 254 254 255 255 255 255 255 255 255 255 255 256 256 256 256 255 253 252 252 251 250 250 249 248 247 245 243 242 242 242 242 241 241 241 239 239 238 238 239 241 243 246 247 246 245 244 242 241 240
254 253 253 253 253 253 253 253 253 254 254 254 254 254 254 254 254 255 255 254 254 252 251 251 250 249 249 248 247 245 244 243 242 242 242 242 242 241 241 240 239 239 240 241 243 246 246 246 244 243 242 241
253 253 253 252 252 252 251 252 252 252 252 252 252 252 253 253 253 252 253 253 254 253 252 251 251 250 249 249 248 247 246 244 243 242 242 242 242 242 242 241 240 239 239 240 241 244 246 245 245 244 243 242
253 253 253 252 252 251 251 251 251 251 251 251 251 251 251 252 252 251 251 251 252 252 253 252 251 251 250 250 249 248 247 246 245 243 242 242 242 243 242 242 242 241 240 240 241 242 244 245 245 244 243 242
253 253 253 253 252 252 251 251 250 250 250 250 250 250 250 250 251 251 251 250 250 250 251 251 251 251 250 250 250 249 249 248 247 245 244 242 242 243 243 242 242 242 241 241 240 241 242 244 245 244 243 243
253 253 253 253 252 252 252 251 251 250 250 250 250 250 250 250 250 250 250 250 250 249 249 250 250 251 250 250 250 250 249 249 248 247 246 244 243 242 242 242 242 242 241 241 241 241 242 243 245 245 244 243
252 252 252 252 252 252 252 251 251 251 250 250 249 249 249 249 249 249 249 249 249 249 248 248 249 250 250 250 250 249 249 249 249 248 247 246 244 243 243 242 242 242 241 241 241 241 242 243 244 244 244 243
252 252 251 251 251 251 251 251 251 251 250 250 250 249 249 249 249 249 249 249 248 248 248 248 248 248 249 249 249 249 249 249 249 249 248 248 246 245 244 243 243 242 242 241 241 241 241 242 243 244 244 244
252 252 252 251 251 251 251 251 251 250 250 250 250 250 249 249 249 249 249 248 248 248 248 247 247 247 248 248 249 249 249 249 249 249 248 248 248 247 245 244 244 243 243 242 241 241 241 241 242 243 244 244
252 252 252 251 251 251 251 250 250 250 250 250 250 250 249 249 249 249 248 248 248 248 248 247 247 246 247 247 248 249 249 249 249 249 248 248 248 247 247 246 245 244 244 243 242 241 241 241 241 242 243 244
252 252 251 251 251 251 251 251 250 250 250 249 249 249 249 249 249 249 248 248 248 248 248 247 247 246 246 246 247 247 248 248 249 249 249 248 248 247 247 246 246 245 244 244 243 242 241 241 241 241 242 242
252 252 251 251 251 251 251 250 250 250 250 250 249 249 249 249 249 249 249 248 248 248 247 247 247 246 246 246 246 246 247 247 248 248 248 248 248 248 247 246 245 245 245 244 243 242 242 241 241 241 242 242
252 252 252 251 251 250 250 250 250 250 250 250 250 249 249 249 249 249 249 248 248 248 247 247 246 246 246 245 245 245 246 246 247 247 248 248 248 248 247 246 245 245 244 245 244 243 242 241 241 241 241 242
252 252 252 251 251 250 250 250 250 250 250 250 250 250 249 249 249 249 248 248 248 248 248 247 247 246 246 245 245 245 245 245 245 246 247 247 247 248 248 247 246 245 244 244 244 243 243 242 241 241 241 242
252 252 251 251 251 251 250 250 250 250 250 250 250 249 249 249 249 249 249 249 248 248 248 248 247 247 246 246 245 245 244 244 244 245 245 246 246 247 247 247 247 246 245 244 243 243 243 242 242 241 241 241
253 252 252 251 251 251 250 250 250 250 250 249 249 249 250 250 249 249 249 249 249 249 249 248 248 247 247 246 246 245 245 244 244 244 244 244 245 246 246 246 246 246 246 245 244 243 242 242 242 241 241 241
253 252 252 252 252 251 251 250 250 250 250 249 249 249 249 249 249 249 249 249 249 249 249 248 248 248 247 247 246 245 245 245 244 244 243 243 243 244 245 245 245 245 245 245 245 244 243 242 241 241 240 240
253 253 252 252 252 252 251 251 250 250 250 249 249 249 249 249 249 249 249 249 249 249 248 248 248 247 247 247 246 246 245 244 244 244 243 243 243 243 243 244 244 245 245 245 245 245 244 243 242 241 240 240
253 253 252 252 252 252 252 251 251 250 250 249 249 249 249 249 248 248 248 248 248 248 248 248 247 247 247 246 246 245 245 244 244 243 243 243 244 243 243 243 243 243 244 244 244 244 244 244 243 242 241 240
252 252 252 252 252 251 251 251 251 251 251 250 249 249 248 248 248 248 248 247 247 247 247 247 247 247 246 246 245 245 245 244 243 243 243 243 243 244 243 243 243 243 243 243 243 244 244 244 244 243 242 242
253 252 251 251 251 251 251 250 250 250 250 250 250 249 249 248 248 247 247 247 247 247 247 247 246 246 246 246 245 245 244 244 243 243 242 242 242 243 243 243 243 243 242 243 243 243 243 243 243 243 243 243
254 253 253 252 251 251 251 250 250 250 250 250 250 250 250 249 248 248 247 247 247 247 246 246 246 246 246 246 245 245 244 244 244 243 242 242 241 241 242 243 243 243 242 242 242 242 242 243 242 242 242 243
256 255 255 254 253 253 252 252 251 251 250 250 250 250 250 250 249 248 248 247 247 246 246 246 246 246 246 246 245 245 245 244 244 243 243 242 242 241 241 241 242 242 242 242 242 242 242 242 242 242 242 242
257 256 256 255 255 254 254 254 253 252 251 251 250 250 250 250 250 249 248 248 247 247 246 246 246 246 245 245 245 245 245 245 244 244 243 243 243 242 241 241 241 242 242 242 242 242 242 242 242 241 241 241
257 256 256 255 255 254 254 254 254 253 253 252 251 250 250 250 250 249 249 248 248 247 247 246 246 246 245 245 245 245 244 244 244 244 244 243 243 243 243 242 241 241 242 241 241 241 241 241 242 241 241 241
258 257 257 256 255 255 254 254 253 253 253 253 252 251 250 249 249 249 249 249 248 248 247 247 246 245 245 245 244 244 244 244 244 244 244 243 243 243 243 243 242 242 242 242 241 241 241 241 241 241 241 241
258 258 258 257 257 256 255 254 253 253 253 252 252 252 251 250 249 249 248 248 248 248 247 247 246 245 245 244 244 244 243 243 243 243 243 243 243 243 243 243 243 242 242 242 242 242 241 241 241 241 241 241
256 255 255 255 254 254 254 253 253 252 252 252 252 252 251 250 249 249 248 248 248 247 247 247 247 246 245 244 244 243 243 243 243 243 243 243 243 243 243 243 243 243 242 242 242 242 242 241 241 241 242 242
259 257 256 255 254 253 253 252 252 251 251 250 250 250 250 250 249 248 248 248 247 247 246 246 246 246 245 244 244 243 243 242 242 242 242 242 242 242 243 243 243 243 243 242 242 242 242 242 241 241 241 242
260 259 259 258 257 257 256 255 254 253 252 251 250 250 249 249 249 248 247 247 247 247 246 246 246 246 245 244 243 243 243 242 242 242 241 241 241 241 242 242 242 242 243 243 242 242 242 242 242 241 241 241
261 260 259 258 258 258 257 257 256 255 254 253 253 253 253 252 251 250 249 248 247 246 246 246 246 246 246 245 244 243 243 242 242 242 241 241 241 240 241 241 241 241 242 242 242 242 242 242 242 242 241 241
Height
10600 10601 10604 10606 10608 10610 10612 10614 10615 10619 10622 10625 10627 10630 10632 10634 10638 10641 10646 10650 10654 10658 10662 10665 10669 10671 10673 10677 10681 10685 10689 10691 10695 10699 10703 10707 10710 10715 10718 10722 10725 10728 10729 10727 10724 10724 10730 10736 10742 10748 10752 10754
10583 10585 10587 10590 10592 10594 10597 10598 10600 10603 10607 10610 10612 10615 10617 10621 10625 10627 10630 10634 10638 10643 10648 10652 10655 10657 10660 10662 10667 10670 10674 10679 10683 10687 10692 10696 10700 10703 10707 10711 10715 10719 10720 10719 10718 10717 10719 10724 10730 10736 10742 10745
10567 10568 10570 10573 10575 10578 10580 10583 10585 10587 10590 10594 10597 10599 10602 10605 10610 10614 10617 10619 10622 10627 10633 10637 10640 10644 10646 10648 10652 10656 10660 10665 10670 10674 10680 10685 10688 10691 10695 10699 10703 10708 10710 10711 10712 10710 10708 10712 10718 10725 10731 10735
10550 10551 10553 10555 10558 10561 10564 10566 10569 10571 10574 10577 10580 10583 10586 10589 10592 10598 10602 10606 10610 10613 10617 10621 10625 10629 10633 10635 10638 10642 10646 10651 10655 10661 10667 10672 10676 10679 10682 10687 10691 10696 10700 10703 10704 10702 10699 10700 10706 10713 10719 10724
10533 10534 10535 10538 10540 10544 10546 10549 10552 10555 10557 10560 10564 10567 10570 10573 10575 10581 10586 10590 10596 10600 10603 10606 10608 10612 10617 10621 10625 10628 10631 10636 10640 10645 10652 10658 10663 10666 10669 10674 10678 10683 10688 10692 10693 10693 10692 10692 10695 10701 10708 10713
10515 10516 10518 10520 10522 10526 10529 10532 10535 10538 10541 10544 10547 10550 10553 10556 10559 10564 10569 10574 10580 10585 10589 10593 10594 10596 10601 10606 10610 10613 10616 10621 10625 10630 10637 10643 10648 10653 10656 10660 10665 10670 10675 10679 10681 10683 10686 10685 10685 10689 10696 10701
10497 10498 10500 10502 10504 10507 10511 10514 10517 10520 10524 10527 10530 10533 10536 10540 10543 10547 10552 10558 10563 10568 10573 10578 10580 10580 10584 10590 10594 10598 10601 10606 10610 10615 10622 10627 10634 10640 10644 10648 10652 10656 10660 10665 10668 10673 10677 10676 10674 10677 10683 10689
10480 10481 10482 10484 10486 10489 10492 10495 10498 10502 10506 10510 10513 10516 10520 10523 10526 10530 10535 10540 10546 10551 10556 10562 10565 10566 10569 10573 10577 10582 10586 10590 10595 10600 10606 10612 10619 10626 10631 10636 10639 10642 10646 10652 10657 10661 10666 10665 10665 10667 10671 10676
10463 10464 10466 10467 10469 10471 10474 10477 10480 10483 10487 10491 10495 10498 10502 10505 10509 10513 10517 10523 10528 10533 10538 10544 10549 10552 10554 10558 10561 10565 10570 10575 10579 10585 10590 10596 10603 10610 10617 10623 10627 10630 10633 10639 10645 10649 10653 10654 10655 10657 10659 10664
10446 10447 10449 10451 10452 10454 10456 10459 10461 10465 10468 10472 10476 10480 10484 10488 10492 10496 10501 10505 10511 10515 10521 10526 10532 10536 10540 10543 10547 10550 10554 10559 10564 10569 10575 10580 10586 10593 10601 10608 10613 10616 10620 10626 10632 10637 10641 10643 10645 10645 10648 10653
10429 10430 10432 10433 10435 10437 10439 10441 10444 10446 10450 10454 10458 10462 10465 10469 10473 10478 10484 10488 10493 10498 10503 10509 10514 10520 10524 10529 10532 10535 10539 10543 10548 10553 10558 10564 10570 10577 10584 10591 10598 10602 10607 10612 10619 10625 10628 10632 10634 10635 10637 10640
10411 10413 10415 10416 10418 10420 10422 10424 10426 10429 10432 10436 10440 10444 10448 10452 10456 10460 10465 10471 10476 10481 10487 10492 10497 10502 10508 10513 10517 10520 10524 10528 10533 10537 10542 10547 10553 10560 10567 10574 10582 10587 10592 10597 10605 10611 10615 10620 10623 10624 10626 10628
10394 10396 10397 10399 10401 10403 10406 10407 10409 10412 10416 10419 10422 10426 10430 10433 10438 10442 10447 10453 10458 10464 10470 10475 10481 10486 10491 10496 10501 10505 10510 10514 10518 10522 10526 10531 10536 10542 10549 10556 10564 10572 10577 10582 10589 10596 10600 10606 10610 10612 10616 10617
10377 10378 10380 10382 10384 10387 10389 10391 10393 10396 10399 10402 10406 10409 10412 10415 10419 10424 10429 10435 10441 10447 10452 10459 10465 10470 10475 10480 10485 10491 10495 10499 10503 10507 10511 10516 10520 10525 10532 10538 10546 10555 10562 10567 10573 10580 10585 10590 10596 10600 10604 10607
10358 10361 10363 10365 10367 10370 10372 10375 10377 10380 10382 10386 10389 10392 10395 10398 10402 10407 10413 10418 10424 10430 10436 10442 10448 10454 10460 10465 10470 10476 10480 10484 10488 10493 10498 10501 10504 10509 10515 10521 10528 10536 10544 10551 10558 10564 10569 10575 10581 10587 10590 10593
10340 10342 10345 10347 10349 10352 10355 10358 10361 10364 10366 10370 10372 10376 10378 10382 10387 10392 10397 10402 10408 10413 10419 10425 10431 10437 10443 10449 10455 10461 10465 10470 10474 10479 10483 10486 10489 10493 10498 10504 10511 10518 10526 10534 10540 10547 10554 10559 10566 10573 10576 10579
10322 10324 10326 10328 10331 10334 10337 10340 10343 10346 10350 10353 10356 10359 10362 10366 10371 10376 10380 10385 10390 10396 10401 10407 10413 10419 10425 10431 10437 10444 10449 10454 10459 10463 10467 10471 10475 10478 10482 10488 10494 10501 10509 10516 10522 10530 10537 10544 10551 10557 10561 10565
10303 10305 10307 10310 10312 10315 10318 10321 10324 10328 10332 10336 10339 10342 10345 10349 10353 10358 10362 10367 10372 10377 10383 10388 10394 10400 10406 10412 10418 10425 10431 10437 10443 10448 10451 10454 10459 10463 10467 10472 10478 10484 10491 10499 10505 10512 10519 10527 10535 10541 10547 10551
10284 10286 10289 10292 10294 10297 10300 10302 10305 10309 10313 10317 10321 10324 10328 10332 10336 10340 10344 10348 10353 10358 10363 10369 10375 10380 10386 10392 10399 10405 10412 10419 10425 10431 10436 10439 10442 10447 10452 10457 10462 10468 10475 10481 10489 10495 10502 10509 10517 10524 10531 10536
10266 10268 10270 10273 10275 10278 10281 10284 10287 10290 10294 10298 10302 10305 10309 10313 10317 10321 10325 10330 10334 10339 10344 10349 10355 10361 10367 10373 10379 10385 10392 10399 10406 10412 10418 10423 10427 10430 10435 10441 10447 10453 10459 10464 10471 10479 10486 10493 10500 10507 10514 10519
10248 10250 10251 10254 10256 10258 10261 10265 10268 10272 10275 10279 10283 10286 10290 10295 10299 10303 10308 10312 10316 10321 10325 10330 10336 10342 10348 10354 10360 10367 10373 10379 10386 10393 10399 10405 10410 10414 10419 10424 10430 10436 10443 10448 10455 10462 10468 10475 10483 10491 10497 10502
10231 10232 10234 10236 10238 10240 10243 10246 10250 10254 10258 10261 10265 10268 10272 10276 10281 10285 10289 10294 10299 10303 10308 10313 10318 10323 10329 10335 10342 10349 10355 10361 10367 10374 10381 10386 10392 10398 10402 10407 10412 10419 10426 10432 10439 10445 10451 10458 10465 10473 10480 10486
10214 10216 10218 10220 10222 10224 10227 10229 10233 10237 10241 10244 10248 10251 10254 10258 10262 10267 10271 10276 10281 10285 10290 10295 10300 10305 10311 10317 10323 10330 10337 10343 10350 10356 10363 10369 10375 10380 10386 10391 10395 10401 10409 10415 10422 10428 10434 10440 10447 10455 10462 10469
10199 10200 10201 10203 10205 10208 10210 10213 10216 10219 10223 10227 10231 10234 10237 10240 10243 10248 10253 10257 10262 10267 10272 10277 10281 10287 10293 10299 10305 10312 10319 10325 10332 10339 10346 10352 10358 10363 10369 10375 10380 10384 10390 10398 10405 10411 10417 10423 10429 10436 10443 10451
10184 10184 10185 10187 10189 10191 10194 10197 10199 10201 10204 10208 10213 10216 10219 10222 10225 10229 10234 10239 10243 10249 10254 10258 10262 10268 10274 10280 10286 10294 10301 10307 10314 10321 10328 10335 10341 10346 10352 10358 10364 10369 10374 10381 10388 10394 10400 10406 10412 10419 10427 10434
10169 10170 10171 10172 10174 10176 10179 10181 10183 10185 10187 10189 10193 10197 10201 10204 10207 10210 10215 10220 10225 10231 10236 10239 10243 10249 10255 10261 10268 10276 10283 10290 10296 10303 10310 10317 10323 10329 10335 10341 10348 10354 10359 10364 10370 10378 10384 10390 10396 10401 10409 10417
10155 10155 10157 10158 10160 10162 10163 10165 10167 10169 10171 10173 10175 10178 10181 10185 10189 10192 10197 10201 10206 10212 10218 10220 10223 10230 10236 10243 10250 10257 10265 10272 10278 10285 10291 10299 10305 10312 10318 10324 10330 10336 10343 10348 10353 10361 10368 10375 10379 10384 10393 10401
10138 10139 10139 10140 10141 10143 10144 10147 10149 10151 10154 10156 10157 10160 10162 10166 10170 10174 10179 10183 10188 10193 10198 10201 10204 10210 10217 10225 10232 10239 10247 10254 10260 10267 10274 10281 10288 10294 10300 10307 10313 10319 10325 10331 10337 10343 10351 10358 10363 10370 10379 10383
10124 10124 10124 10123 10124 10125 10126 10129 10131 10132 10135 10137 10138 10141 10144 10147 10152 10156 10161 10166 10169 10174 10180 10183 10186 10190 10198 10207 10214 10221 10228 10235 10241 10249 10257 10264 10270 10277 10283 10289 10296 10301 10308 10314 10320 10326 10333 10340 10345 10355 10363 10367
10110 10111 10111 10110 10112 10113 10113 10115 10117 10118 10121 10123 10123 10124 10127 10131 10135 10139 10144 10148 10152 10156 10161 10165 10169 10172 10179 10189 10197 10203 10210 10216 10223 10231 10239 10246 10253 10259 10265 10271 10278 10284 10291 10296 10302 10308 10315 10321 10328 10338 10346 10351
10096 10097 10097 10097 10099 10100 10101 10103 10105 10106 10108 10110 10111 10112 10116 10120 10123 10126 10130 10134 10136 10140 10145 10149 10153 10156 10162 10172 10180 10186 10193 10199 10206 10214 10221 10227 10234 10240 10246 10252 10260 10267 10273 10278 10284 10291 10298 10304 10311 10320 10326 10333